Starlink 2589

operational
NORAD ID: 48371 Int'l Des: 2021-038 Owner: SPXS Country: US Constellation: starlink
LEOCIRCULARSTARLINK_TYPE

关于 Starlink 2589

正在加载描述...

实时位置

正在加载3D地球...

即将过境

高度历史

Altitude vs Time

uPlot chart will show altitude changes over time

两行轨道根数

1 48371U 21038U 25352.28761012 -.00001584 00000-0 -87454-4 0 9993
2 48371 53.0553 357.0462 0001545 95.2861 264.8305 15.06397901254896
Epoch: Dec 18, 2025 • Age: 19 hours

当前状态

高度 566.7 km
速度 7.58 km/s
星下点 -52.96°S, 158.87°E
发射日期 May 4, 2021
运行时间 4.6 years
类型 internet

技术详情

分类 Payload
质量 260.00 kg
干质量 248.00 kg
总质量 260.00 kg
长度 0.20 m
直径 2.80 m
跨度 9.00 m
形状 Box + pan
制造商 SPXS
平台类型 Starlink
阶段状态 In Orbit
所有者/国家 SPXS/US

大型星座

Loading constellations...